DLH15G EDDN-EDDH

Flight info

Callsign DLH15G
Flight time 0h 56m
Altitude 34000
Route ERETO1G/28 ERETO DCT LONLI M726 LASTO M852 HLZ Z990 DIRBO T902 RARUP RARUP3S
Aircraft A359/H-SDE2E3GHIJ3J4J5LM1ORWXY/LB1D1

Departure

Time 2026-05-05 15:56
Airport Nuremberg Airport (EDDN)

Arrival

Time 2026-05-05 16:52
Airport Hamburg Helmut Schmidt Airport (EDDH)
Time Latitude Longitude Altitude Speed Heading
2026-05-05 15:23 49.49541 11.08483 1035 ft 0 kts 61°
2026-05-05 15:48 49.49556 11.08513 1035 ft 6 kts 46°
2026-05-05 15:49 49.49589 11.08584 1036 ft 10 kts 68°
2026-05-05 15:49 49.49589 11.08693 1037 ft 10 kts 97°
2026-05-05 15:49 49.49581 11.08797 1039 ft 10 kts 97°
2026-05-05 15:49 49.49572 11.08897 1041 ft 9 kts 98°
2026-05-05 15:50 49.49562 11.08987 1044 ft 8 kts 99°
2026-05-05 15:50 49.49554 11.09068 1046 ft 9 kts 99°
2026-05-05 15:50 49.49538 11.09212 1051 ft 15 kts 99°
2026-05-05 15:50 49.49532 11.09279 1053 ft 6 kts 96°
2026-05-05 15:51 49.49535 11.09337 1055 ft 5 kts 78°
2026-05-05 15:51 49.49545 11.09378 1056 ft 4 kts 64°
2026-05-05 15:51 49.49575 11.09450 1058 ft 0 kts 56°
2026-05-05 15:53 49.49577 11.09455 1058 ft 4 kts 55°
2026-05-05 15:53 49.49621 11.09539 1061 ft 11 kts 42°
2026-05-05 15:54 49.49678 11.09555 1062 ft 6 kts 339°
2026-05-05 15:54 49.49705 11.09490 1061 ft 8 kts 287°
2026-05-05 15:54 49.49713 11.09424 1059 ft 0 kts 277°
2026-05-05 15:54 49.49713 11.09420 1059 ft 1 kts 277°
2026-05-05 15:55 49.49716 11.09382 1058 ft 9 kts 277°
2026-05-05 15:55 49.49750 11.09022 1050 ft 68 kts 279°
2026-05-05 15:55 49.49850 11.07933 1041 ft 133 kts 277°
2026-05-05 15:55 49.50008 11.06415 1572 ft 147 kts 272°
2026-05-05 15:56 49.50145 11.04765 2168 ft 162 kts 276°
2026-05-05 15:56 49.50272 11.02907 2498 ft 191 kts 275°
2026-05-05 15:56 49.50461 11.00760 2919 ft 212 kts 279°
2026-05-05 15:56 49.50731 10.98394 3398 ft 235 kts 278°
2026-05-05 15:57 49.51038 10.95838 4022 ft 250 kts 282°
2026-05-05 15:57 49.51879 10.93455 4774 ft 264 kts 313°
2026-05-05 15:57 49.53512 10.92107 5608 ft 276 kts 347°
2026-05-05 15:57 49.55451 10.92028 6383 ft 284 kts
2026-05-05 15:58 49.57437 10.92271 6837 ft 287 kts
2026-05-05 15:58 49.59438 10.92472 6979 ft 289 kts
2026-05-05 15:58 49.61445 10.92609 6990 ft 289 kts
2026-05-05 15:58 49.63433 10.92706 6990 ft 290 kts
2026-05-05 15:59 49.65458 10.92782 6955 ft 290 kts
2026-05-05 15:59 49.67476 10.92847 6810 ft 288 kts
2026-05-05 15:59 49.69475 10.93109 6780 ft 290 kts 12°
2026-05-05 15:59 49.71286 10.94368 6872 ft 289 kts 37°
2026-05-05 16:00 49.72895 10.96397 7108 ft 303 kts 42°
2026-05-05 16:00 49.74510 10.98572 7719 ft 319 kts 42°
2026-05-05 16:00 49.76201 11.00838 8774 ft 325 kts 41°
2026-05-05 16:00 49.77935 11.03151 9751 ft 330 kts 42°
2026-05-05 16:01 49.79691 11.05486 10647 ft 335 kts 42°
2026-05-05 16:01 49.81477 11.07861 11549 ft 340 kts 42°
2026-05-05 16:01 49.83251 11.10322 12457 ft 344 kts 47°
2026-05-05 16:01 49.84649 11.13330 13371 ft 345 kts 64°
2026-05-05 16:02 49.85701 11.16634 14147 ft 349 kts 67°
2026-05-05 16:02 49.86745 11.20082 14900 ft 355 kts 67°
2026-05-05 16:02 49.87807 11.23569 15656 ft 360 kts 67°
2026-05-05 16:02 49.88891 11.27104 16410 ft 365 kts 67°
2026-05-05 16:03 49.90072 11.30639 17166 ft 372 kts 60°
2026-05-05 16:03 49.91732 11.33690 17904 ft 380 kts 42°
2026-05-05 16:03 49.94002 11.35847 18598 ft 387 kts 22°
2026-05-05 16:03 49.96632 11.36767 19271 ft 391 kts
2026-05-05 16:04 49.99344 11.36310 19996 ft 393 kts 342°
2026-05-05 16:04 50.01813 11.34523 20708 ft 392 kts 322°
2026-05-05 16:04 50.03771 11.31604 21410 ft 390 kts 303°
2026-05-05 16:04 50.05090 11.27935 22119 ft 389 kts 292°
2026-05-05 16:05 50.06501 11.24301 22796 ft 399 kts 306°
2026-05-05 16:05 50.08508 11.21324 23441 ft 407 kts 320°
2026-05-05 16:05 50.10971 11.19040 23716 ft 413 kts 333°
2026-05-05 16:05 50.13705 11.17597 23779 ft 418 kts 346°
2026-05-05 16:06 50.16593 11.17023 23774 ft 421 kts 357°
2026-05-05 16:06 50.19532 11.17313 23777 ft 423 kts
2026-05-05 16:06 50.22398 11.18463 23924 ft 431 kts 20°
2026-05-05 16:06 50.25217 11.20280 24137 ft 445 kts 21°
2026-05-05 16:07 50.28201 11.21765 24384 ft 458 kts 13°
2026-05-05 16:07 50.31391 11.22531 24647 ft 469 kts
2026-05-05 16:07 50.34653 11.22814 24965 ft 478 kts 359°
2026-05-05 16:07 50.37999 11.22595 25461 ft 483 kts 354°
2026-05-05 16:08 50.41355 11.22165 26012 ft 487 kts 353°
2026-05-05 16:08 50.44745 11.21641 26553 ft 491 kts 352°
2026-05-05 16:08 50.48163 11.21079 27112 ft 494 kts 352°
2026-05-05 16:08 50.51605 11.20514 27665 ft 498 kts 352°
2026-05-05 16:09 50.55062 11.19959 28197 ft 502 kts 352°
2026-05-05 16:09 50.58556 11.19412 28742 ft 505 kts 352°
2026-05-05 16:09 50.62026 11.18878 29292 ft 507 kts 352°
2026-05-05 16:09 50.65536 11.18345 30012 ft 506 kts 352°
2026-05-05 16:10 50.69040 11.17818 30630 ft 504 kts 352°
2026-05-05 16:10 50.72531 11.17294 31223 ft 503 kts 352°
2026-05-05 16:10 50.76015 11.16764 31670 ft 503 kts 352°
2026-05-05 16:10 50.79494 11.16231 31809 ft 502 kts 352°
2026-05-05 16:11 50.82970 11.15696 31822 ft 501 kts 352°
2026-05-05 16:12 50.96832 11.13561 31829 ft 501 kts 351°
2026-05-05 16:13 51.14266 11.09796 31828 ft 509 kts 337°
2026-05-05 16:13 51.20809 11.05556 31825 ft 506 kts 332°
2026-05-05 16:14 51.33609 10.96335 31822 ft 505 kts 332°
2026-05-05 16:15 51.40387 10.93089 31827 ft 514 kts 349°
2026-05-05 16:15 51.47528 10.91919 31831 ft 516 kts 352°
2026-05-05 16:16 51.61825 10.90308 31838 ft 516 kts 352°
2026-05-05 16:17 51.72567 10.88946 31845 ft 515 kts 350°
2026-05-05 16:18 51.83252 10.87029 31851 ft 514 kts 349°
2026-05-05 16:19 51.93917 10.85382 31857 ft 515 kts 351°
2026-05-05 16:19 52.04624 10.83937 31859 ft 514 kts 351°
2026-05-05 16:20 52.18862 10.81945 31861 ft 513 kts 351°
2026-05-05 16:22 52.36606 10.79730 31860 ft 516 kts 357°
2026-05-05 16:23 52.50974 10.80987 31869 ft 517 kts 359°
2026-05-05 16:23 52.61692 10.82148 31879 ft 516 kts 359°
2026-05-05 16:24 52.68866 10.82906 31881 ft 516 kts 359°
2026-05-05 16:25 52.79618 10.84035 31880 ft 515 kts 358°
2026-05-05 16:25 52.90222 10.83077 31888 ft 507 kts 348°
2026-05-05 16:26 53.04159 10.80176 31894 ft 506 kts 347°
2026-05-05 16:27 53.11158 10.78720 31891 ft 506 kts 347°
2026-05-05 16:27 53.18143 10.77283 31896 ft 505 kts 347°
2026-05-05 16:28 53.25080 10.75855 31896 ft 504 kts 347°
2026-05-05 16:28 53.28538 10.75145 31632 ft 496 kts 347°
2026-05-05 16:28 53.31912 10.74460 31256 ft 475 kts 347°
2026-05-05 16:29 53.35137 10.73814 30416 ft 458 kts 347°
2026-05-05 16:29 53.38272 10.73172 29243 ft 450 kts 346°
2026-05-05 16:29 53.41348 10.72529 28286 ft 437 kts 347°
2026-05-05 16:29 53.44295 10.71916 27738 ft 416 kts 346°
2026-05-05 16:30 53.47106 10.71336 27228 ft 398 kts 346°
2026-05-05 16:30 53.49784 10.70777 26500 ft 388 kts 346°
2026-05-05 16:30 53.52441 10.70213 25701 ft 380 kts 346°
2026-05-05 16:30 53.54832 10.69701 24991 ft 374 kts 347°
2026-05-05 16:31 53.57401 10.69136 24209 ft 367 kts 346°
2026-05-05 16:31 53.59850 10.68167 23446 ft 356 kts 335°
2026-05-05 16:31 53.62072 10.66512 22542 ft 343 kts 324°
2026-05-05 16:31 53.63970 10.64198 21633 ft 331 kts 312°
2026-05-05 16:32 53.65474 10.61336 20778 ft 321 kts 300°
2026-05-05 16:32 53.66528 10.58138 19923 ft 312 kts 289°
2026-05-05 16:32 53.67155 10.54675 19090 ft 306 kts 278°
2026-05-05 16:32 53.67345 10.51140 18253 ft 302 kts 268°
2026-05-05 16:33 53.67115 10.47636 17322 ft 299 kts 258°
2026-05-05 16:33 53.66488 10.44303 16388 ft 297 kts 248°
2026-05-05 16:33 53.65496 10.41252 15501 ft 297 kts 237°
2026-05-05 16:33 53.64171 10.38579 14622 ft 297 kts 226°
2026-05-05 16:34 53.62701 10.36153 13788 ft 294 kts 229°
2026-05-05 16:34 53.61396 10.33517 12876 ft 291 kts 233°
2026-05-05 16:34 53.60183 10.30874 12058 ft 287 kts 234°
2026-05-05 16:34 53.58982 10.28223 11260 ft 282 kts 234°
2026-05-05 16:35 53.57804 10.25609 10517 ft 278 kts 234°
2026-05-05 16:35 53.56650 10.23042 9855 ft 272 kts 234°
2026-05-05 16:35 53.55514 10.20507 8913 ft 272 kts 234°
2026-05-05 16:35 53.54367 10.17950 7965 ft 273 kts 234°
2026-05-05 16:36 53.53223 10.15403 7048 ft 273 kts 234°
2026-05-05 16:36 53.52079 10.12856 6140 ft 273 kts 234°
2026-05-05 16:36 53.50942 10.10329 5416 ft 266 kts 234°
2026-05-05 16:36 53.49855 10.07925 5049 ft 248 kts 234°
2026-05-05 16:37 53.48857 10.05730 4972 ft 228 kts 234°
2026-05-05 16:37 53.47924 10.03686 4992 ft 221 kts 234°
2026-05-05 16:37 53.46989 10.01636 4991 ft 220 kts 234°
2026-05-05 16:37 53.46058 9.99591 4989 ft 220 kts 234°
2026-05-05 16:38 53.45129 9.97550 4989 ft 220 kts 234°
2026-05-05 16:38 53.44218 9.95503 4971 ft 220 kts 237°
2026-05-05 16:38 53.43550 9.93186 4549 ft 223 kts 251°
2026-05-05 16:38 53.43067 9.90696 4009 ft 221 kts 253°
2026-05-05 16:39 53.42774 9.89090 3789 ft 213 kts 253°
2026-05-05 16:39 53.42530 9.86686 3305 ft 208 kts 276°
2026-05-05 16:39 53.42997 9.84453 3035 ft 203 kts 300°
2026-05-05 16:39 53.43746 9.82439 2985 ft 205 kts 303°
2026-05-05 16:40 53.44537 9.80436 3006 ft 207 kts 304°
2026-05-05 16:40 53.45353 9.78384 2982 ft 209 kts 304°
2026-05-05 16:40 53.46138 9.76410 2995 ft 201 kts 304°
2026-05-05 16:40 53.47057 9.74715 2981 ft 200 kts 327°
2026-05-05 16:41 53.48376 9.74124 2991 ft 200 kts
2026-05-05 16:41 53.49722 9.74740 2991 ft 202 kts 21°
2026-05-05 16:41 53.51006 9.75724 3006 ft 204 kts 24°
2026-05-05 16:41 53.52285 9.76762 3006 ft 204 kts 24°
2026-05-05 16:42 53.53561 9.77800 2988 ft 205 kts 24°
2026-05-05 16:42 53.54766 9.79082 2982 ft 208 kts 44°
2026-05-05 16:42 53.55431 9.81216 2996 ft 210 kts 79°
2026-05-05 16:42 53.55394 9.83653 2970 ft 205 kts 106°
2026-05-05 16:43 53.54634 9.85716 3349 ft 215 kts 136°
2026-05-05 16:43 53.53408 9.87026 3015 ft 208 kts 165°
2026-05-05 16:43 53.51976 9.87293 2982 ft 210 kts 181°
2026-05-05 16:43 53.50518 9.87297 2796 ft 208 kts 183°
2026-05-05 16:44 53.49089 9.87224 2549 ft 192 kts 185°
2026-05-05 16:44 53.47751 9.87116 2781 ft 200 kts 185°
2026-05-05 16:44 53.46349 9.86731 2953 ft 205 kts 206°
2026-05-05 16:44 53.45261 9.85289 2963 ft 200 kts 232°
2026-05-05 16:45 53.44400 9.83429 2971 ft 201 kts 234°
2026-05-05 16:45 53.43543 9.81554 3139 ft 203 kts 234°
2026-05-05 16:45 53.42696 9.79685 3007 ft 200 kts 235°
2026-05-05 16:45 53.42273 9.77512 3038 ft 201 kts 271°
2026-05-05 16:46 53.42666 9.75345 3001 ft 197 kts 306°
2026-05-05 16:46 53.43661 9.73756 2798 ft 193 kts 322°
2026-05-05 16:46 53.44669 9.72458 2690 ft 175 kts 322°
2026-05-05 16:46 53.45693 9.71573 2542 ft 157 kts 349°
2026-05-05 16:47 53.46725 9.71794 2648 ft 156 kts 18°
2026-05-05 16:47 53.47707 9.72442 2597 ft 144 kts 20°
2026-05-05 16:47 53.48728 9.73163 2620 ft 168 kts 21°
2026-05-05 16:47 53.49745 9.74045 2734 ft 161 kts 32°
2026-05-05 16:48 53.50533 9.75312 2806 ft 155 kts 49°
2026-05-05 16:48 53.51350 9.76882 2905 ft 185 kts 46°
2026-05-05 16:48 53.52199 9.78364 2758 ft 169 kts 42°
2026-05-05 16:48 53.53005 9.79712 2522 ft 158 kts 43°
2026-05-05 16:49 53.53841 9.81168 2504 ft 188 kts 45°
2026-05-05 16:49 53.54800 9.82835 2514 ft 203 kts 43°
2026-05-05 16:49 53.55686 9.84324 2193 ft 198 kts 42°
2026-05-05 16:49 53.56607 9.86004 2016 ft 190 kts 48°
2026-05-05 16:50 53.57457 9.87673 1684 ft 185 kts 46°
2026-05-05 16:50 53.58287 9.89311 1337 ft 179 kts 48°
2026-05-05 16:50 53.59072 9.90912 965 ft 175 kts 48°
2026-05-05 16:50 53.59842 9.92438 711 ft 165 kts 48°
2026-05-05 16:51 53.60569 9.93837 464 ft 152 kts 49°
2026-05-05 16:51 53.61224 9.95161 252 ft 142 kts 51°
2026-05-05 16:51 53.61828 9.96385 90 ft 133 kts 52°
2026-05-05 16:51 53.62377 9.97497 51 ft 109 kts 49°
2026-05-05 16:52 53.62658 9.98065 53 ft 25 kts 50°
2026-05-05 16:52 53.62745 9.98248 48 ft 18 kts 58°
2026-05-05 16:52 53.62756 9.98298 48 ft 3 kts 85°
2026-05-05 16:52 53.62747 9.98335 50 ft 8 kts 122°
2026-05-05 16:53 53.62685 9.98487 52 ft 15 kts 90°
2026-05-05 16:53 53.62721 9.98615 52 ft 11 kts 52°
2026-05-05 16:53 53.62775 9.98728 53 ft 13 kts 50°
2026-05-05 16:53 53.62839 9.98856 53 ft 15 kts 47°
2026-05-05 16:54 53.62901 9.98977 48 ft 14 kts 50°
2026-05-05 16:54 53.62964 9.99109 50 ft 15 kts 51°
2026-05-05 16:54 53.63034 9.99251 50 ft 16 kts 51°
2026-05-05 16:54 53.63100 9.99408 48 ft 16 kts 55°
2026-05-05 16:55 53.63164 9.99556 49 ft 13 kts 50°
2026-05-05 16:55 53.63197 9.99623 50 ft 0 kts 51°
2026-05-05 16:56 53.63221 9.99730 50 ft 10 kts 95°
2026-05-05 16:56 53.63185 9.99809 51 ft 10 kts 156°
2026-05-05 16:56 53.63073 9.99894 49 ft 19 kts 154°
2026-05-05 16:56 53.63059 9.99906 50 ft 1 kts 154°
2026-05-05 16:57 53.63047 9.99915 49 ft 4 kts 154°
2026-05-05 16:57 53.63010 9.99945 53 ft 8 kts 154°
2026-05-05 16:57 53.62955 10.00006 52 ft 9 kts 125°
2026-05-05 16:57 53.62961 10.00082 52 ft 5 kts 53°
2026-05-05 16:58 53.62991 10.00129 52 ft 8 kts 39°
2026-05-05 16:58 53.63046 10.00197 49 ft 11 kts 33°
2026-05-05 16:58 53.63054 10.00207 49 ft 0 kts 34°
2026-05-05 16:58 53.63050 10.00259 49 ft 6 kts 126°
2026-05-05 16:59 53.63018 10.00336 52 ft 0 kts 123°